When you browse on this site, cookies collect data to enhance your experience and personalize the content and advertising you see.
Visit our Privacy Policy to learn more. By continuing to use the site, you agree to this use of cookies and data.
  • en France
  • Liste des pays
  • À 7 jours
  • Température de l'eau
  • Carte météo
  • Widgets météo
  • user-avatar
    Se connecter

    Météo par heure à Baden-Baden

    Ce jour, 21 Septembre, Samedi

    Heure Température Précipitation Vent Pression Humidité
    00:00 +9°C° 0 mm 2 m/s 734 mmHg 76%
    01:00 +8°C° 0 mm 2 m/s 734 mmHg 78%
    02:00 +8°C° 0 mm 2 m/s 734 mmHg 77%
    03:00 +8°C° 0 mm 2 m/s 733 mmHg 76%
    04:00 +7°C° 0 mm 2 m/s 733 mmHg 76%
    05:00 +7°C° 0 mm 2 m/s 733 mmHg 74%
    06:00 +7°C° 0 mm 2 m/s 733 mmHg 72%
    07:00 +9°C° 0 mm 1 m/s 733 mmHg 70%
    08:00 +11°C° 0 mm 1 m/s 733 mmHg 63%
    09:00 +14°C° 0 mm 1 m/s 733 mmHg 55%
    10:00 +18°C° 0 mm 1 m/s 733 mmHg 47%
    11:00 +19°C° 0 mm 1 m/s 733 mmHg 45%
    12:00 +21°C° 0 mm 1 m/s 732 mmHg 42%
    13:00 +23°C° 0 mm 1 m/s 732 mmHg 39%
    14:00 +23°C° 0 mm 2 m/s 731 mmHg 41%
    15:00 +23°C° 0 mm 2 m/s 731 mmHg 42%
    16:00 +23°C° 0 mm 2 m/s 730 mmHg 43%
    17:00 +20°C° 0 mm 2 m/s 730 mmHg 52%
    18:00 +17°C° 0 mm 2 m/s 730 mmHg 62%
    19:00 +15°C° 0 mm 2 m/s 729 mmHg 71%
    20:00 +15°C° 0 mm 2 m/s 729 mmHg 75%
    21:00 +14°C° 0 mm 1 m/s 729 mmHg 79%
    22:00 +13°C° 0 mm 1 m/s 729 mmHg 84%
    23:00 +13°C° 0 mm 1 m/s 729 mmHg 83%

    Demain, 22 Septembre, Dimanche

    Heure Température Précipitation Vent Pression Humidité
    00:00 +13°C° 0 mm 1 m/s 729 mmHg 83%
    01:00 +12°C° 0 mm 1 m/s 729 mmHg 83%
    02:00 +12°C° 0 mm 1 m/s 728 mmHg 83%
    03:00 +12°C° 0 mm 1 m/s 728 mmHg 82%
    04:00 +12°C° 0 mm 1 m/s 728 mmHg 81%
    05:00 +12°C° 0 mm 1 m/s 728 mmHg 80%
    06:00 +13°C° 0 mm 1 m/s 728 mmHg 79%
    07:00 +13°C° 0 mm 1 m/s 728 mmHg 78%
    08:00 +15°C° 0 mm 1 m/s 728 mmHg 72%
    09:00 +18°C° 0 mm 1 m/s 728 mmHg 65%
    10:00 +20°C° 0 mm 1 m/s 728 mmHg 58%
    11:00 +21°C° 0 mm 1 m/s 728 mmHg 57%
    12:00 +21°C° 0 mm 1 m/s 727 mmHg 56%
    13:00 +22°C° 0 mm 1 m/s 727 mmHg 55%
    14:00 +21°C° 0 mm 1 m/s 727 mmHg 59%
    15:00 +21°C° 0 mm 1 m/s 726 mmHg 62%
    16:00 +18°C° 0 mm 0 m/s 726 mmHg 66%
    17:00 +17°C° 0 mm 0 m/s 726 mmHg 70%
    18:00 +16°C° 0 mm 0 m/s 726 mmHg 73%
    19:00 +15°C° 0 mm 0 m/s 725 mmHg 76%
    20:00 +16°C° 0 mm 0 m/s 726 mmHg 75%
    21:00 +18°C° 0 mm 1 m/s 726 mmHg 73%
    22:00 +18°C° 0 mm 1 m/s 726 mmHg 72%
    23:00 +16°C° 0.4 mm 2 m/s 727 mmHg 79%

    Après-demain, 23 Septembre, Lundi

    Heure Température Précipitation Vent Pression Humidité
    00:00 +16°C° 0.4 mm 2 m/s 727 mmHg 85%
    01:00 +14°C° 0.4 mm 3 m/s 727 mmHg 92%
    02:00 +14°C° 1.8 mm 3 m/s 728 mmHg 93%
    03:00 +13°C° 1.8 mm 3 m/s 728 mmHg 94%
    04:00 +13°C° 1.8 mm 4 m/s 728 mmHg 96%
    05:00 +13°C° 1.1 mm 3 m/s 729 mmHg 95%
    06:00 +13°C° 1.1 mm 3 m/s 729 mmHg 95%
    07:00 +13°C° 1.1 mm 3 m/s 729 mmHg 95%
    08:00 +13°C° 0.4 mm 3 m/s 730 mmHg 94%
    09:00 +13°C° 0.4 mm 3 m/s 730 mmHg 92%
    10:00 +13°C° 0.4 mm 3 m/s 731 mmHg 91%
    11:00 +14°C° 0.2 mm 3 m/s 731 mmHg 86%
    12:00 +16°C° 0.2 mm 3 m/s 731 mmHg 81%
    13:00 +17°C° 0.2 mm 3 m/s 731 mmHg 76%
    14:00 +17°C° 0.1 mm 3 m/s 731 mmHg 74%
    15:00 +17°C° 0.1 mm 3 m/s 731 mmHg 73%
    16:00 +17°C° 0.1 mm 3 m/s 730 mmHg 71%
    17:00 +16°C° 0 mm 2 m/s 730 mmHg 77%
    18:00 +14°C° 0 mm 1 m/s 730 mmHg 82%
    19:00 +13°C° 0 mm 1 m/s 730 mmHg 88%
    20:00 +12°C° 0 mm 1 m/s 731 mmHg 89%
    21:00 +12°C° 0 mm 1 m/s 731 mmHg 90%
    22:00 +12°C° 0 mm 1 m/s 731 mmHg 91%
    23:00 +11°C° 0 mm 1 m/s 731 mmHg 91%

    24 Septembre, Mardi

    Heure Température Précipitation Vent Pression Humidité
    00:00 +11°C° 0 mm 1 m/s 730 mmHg 91%
    01:00 +11°C° 0 mm 1 m/s 730 mmHg 91%
    02:00 +11°C° 0 mm 1 m/s 730 mmHg 92%
    03:00 +11°C° 0 mm 1 m/s 730 mmHg 92%
    04:00 +10°C° 0 mm 1 m/s 729 mmHg 92%
    05:00 +10°C° 0 mm 1 m/s 729 mmHg 92%
    06:00 +10°C° 0 mm 1 m/s 728 mmHg 92%
    07:00 +10°C° 0 mm 1 m/s 728 mmHg 92%
    08:00 +13°C° 0 mm 1 m/s 728 mmHg 84%
    09:00 +15°C° 0 mm 1 m/s 728 mmHg 75%
    10:00 +18°C° 0 mm 1 m/s 727 mmHg 67%
    11:00 +17°C° 0 mm 2 m/s 727 mmHg 66%
    12:00 +17°C° 0 mm 2 m/s 727 mmHg 66%
    13:00 +17°C° 0 mm 3 m/s 727 mmHg 66%
    14:00 +16°C° 0.2 mm 3 m/s 727 mmHg 72%
    15:00 +15°C° 0.2 mm 2 m/s 726 mmHg 79%
    16:00 +14°C° 0.2 mm 2 m/s 726 mmHg 86%
    17:00 +13°C° 0.1 mm 2 m/s 726 mmHg 87%
    18:00 +13°C° 0.1 mm 2 m/s 726 mmHg 88%
    19:00 +13°C° 0.1 mm 2 m/s 725 mmHg 89%
    20:00 +12°C° 0.2 mm 3 m/s 725 mmHg 90%
    21:00 +12°C° 0.2 mm 3 m/s 725 mmHg 90%
    22:00 +12°C° 0.2 mm 3 m/s 725 mmHg 91%
    23:00 +12°C° 0.2 mm 4 m/s 725 mmHg 91%

    25 Septembre, Mercredi

    Heure Température Précipitation Vent Pression Humidité
    00:00 +12°C° 0.2 mm 4 m/s 725 mmHg 90%
    01:00 +12°C° 0.2 mm 4 m/s 725 mmHg 90%
    02:00 +12°C° 0.2 mm 4 m/s 725 mmHg 90%
    03:00 +12°C° 0.2 mm 4 m/s 725 mmHg 89%
    04:00 +11°C° 0.2 mm 4 m/s 726 mmHg 89%
    05:00 +11°C° 0.4 mm 4 m/s 726 mmHg 90%
    06:00 +11°C° 0.4 mm 4 m/s 726 mmHg 91%
    07:00 +11°C° 0.4 mm 4 m/s 726 mmHg 92%
    08:00 +11°C° 0.2 mm 4 m/s 727 mmHg 86%
    09:00 +12°C° 0.2 mm 5 m/s 727 mmHg 80%
    10:00 +13°C° 0.2 mm 5 m/s 727 mmHg 74%
    11:00 +14°C° 0.1 mm 5 m/s 727 mmHg 69%
    12:00 +15°C° 0.1 mm 5 m/s 727 mmHg 64%
    13:00 +15°C° 0.1 mm 5 m/s 727 mmHg 58%
    14:00 +15°C° 0.1 mm 5 m/s 727 mmHg 64%
    15:00 +14°C° 0.1 mm 4 m/s 727 mmHg 69%
    16:00 +13°C° 0.1 mm 4 m/s 726 mmHg 74%
    17:00 +12°C° 0 mm 4 m/s 727 mmHg 77%
    18:00 +12°C° 0 mm 3 m/s 727 mmHg 81%
    19:00 +11°C° 0 mm 3 m/s 727 mmHg 84%
    20:00 +11°C° 0 mm 3 m/s 727 mmHg 85%
    21:00 +11°C° 0 mm 3 m/s 727 mmHg 85%
    22:00 +11°C° 0 mm 3 m/s 728 mmHg 86%
    23:00 +11°C° 0 mm 3 m/s 728 mmHg 86%

    26 Septembre, Jeudi

    Heure Température Précipitation Vent Pression Humidité
    00:00 +11°C° 0 mm 3 m/s 728 mmHg 87%
    01:00 +11°C° 0 mm 3 m/s 727 mmHg 88%
    02:00 +11°C° 0 mm 3 m/s 727 mmHg 87%
    03:00 +11°C° 0 mm 3 m/s 727 mmHg 86%
    04:00 +11°C° 0 mm 3 m/s 727 mmHg 86%
    05:00 +12°C° 0 mm 3 m/s 727 mmHg 84%
    06:00 +12°C° 0 mm 3 m/s 727 mmHg 83%
    07:00 +12°C° 0 mm 3 m/s 727 mmHg 81%
    08:00 +13°C° 0 mm 4 m/s 727 mmHg 78%
    09:00 +14°C° 0 mm 4 m/s 727 mmHg 75%
    10:00 +15°C° 0 mm 5 m/s 727 mmHg 71%
    11:00 +16°C° 0 mm 5 m/s 727 mmHg 70%
    12:00 +16°C° 0 mm 5 m/s 727 mmHg 69%
    13:00 +16°C° 0 mm 5 m/s 726 mmHg 68%
    14:00 +18°C° 0 mm 4 m/s 726 mmHg 69%
    15:00 +18°C° 0 mm 4 m/s 726 mmHg 69%
    16:00 +18°C° 0 mm 4 m/s 725 mmHg 69%
    17:00 +17°C° 0 mm 4 m/s 725 mmHg 70%
    18:00 +17°C° 0 mm 4 m/s 725 mmHg 72%
    19:00 +17°C° 0 mm 4 m/s 725 mmHg 74%
    20:00 +17°C° 0 mm 4 m/s 725 mmHg 75%
    21:00 +15°C° 0 mm 4 m/s 725 mmHg 75%
    22:00 +15°C° 0 mm 4 m/s 725 mmHg 75%
    23:00 +15°C° 0.4 mm 4 m/s 725 mmHg 79%
    Voir plus